Total_Precipitation_Accumulation
1.45 1.65 1.80 1.82 1.83 1.86 1.88 1.85 1.88 1.87 1.87 1.86 1.82 1.85 1.92 1.90 1.85 1.92 1.89 1.84 1.85 1.79 1.75 1.79 1.68 1.57 1.69 1.73 1.79 1.81 1.74 1.78 1.81 1.19 0.94 1.01 1.26 1.41 1.49 1.35 1.32 1.32 1.32
1.36 1.49 1.64 1.77 1.82 1.86 1.82 1.82 1.86 1.88 1.85 1.77 1.73 1.74 1.80 1.83 1.82 1.85 1.85 1.80 1.80 1.76 1.72 1.74 1.72 1.64 1.66 1.70 1.82 1.83 1.74 1.66 1.76 1.54 1.20 1.18 1.33 1.48 1.54 1.52 1.49 1.44 1.31
1.33 1.46 1.59 1.69 1.72 1.76 1.70 1.75 1.89 1.95 1.91 1.76 1.70 1.72 1.76 1.83 1.81 1.77 1.87 1.86 1.76 1.69 1.65 1.69 1.72 1.72 1.65 1.60 1.70 1.76 1.69 1.64 1.69 1.72 1.44 1.29 1.39 1.54 1.71 1.76 1.70 1.67 1.51
1.22 1.40 1.53 1.63 1.60 1.58 1.60 1.60 1.72 1.84 1.91 1.82 1.69 1.65 1.72 1.86 1.88 1.86 1.94 1.93 1.81 1.68 1.57 1.57 1.64 1.77 1.79 1.76 1.77 1.74 1.78 1.87 1.85 1.85 1.67 1.49 1.52 1.64 1.82 1.92 1.95 1.88 1.78
1.16 1.28 1.37 1.49 1.58 1.54 1.53 1.57 1.66 1.74 1.73 1.75 1.75 1.68 1.71 1.94 2.18 2.32 2.20 1.94 1.78 1.68 1.51 1.42 1.50 1.79 2.02 2.18 2.21 2.04 2.06 2.26 2.24 2.18 2.03 1.80 1.66 1.73 1.86 1.86 1.97 1.93 1.91
1.17 1.23 1.28 1.44 1.57 1.55 1.47 1.55 1.70 1.79 1.76 1.71 1.74 1.71 1.67 1.86 2.34 2.58 2.19 1.80 1.66 1.62 1.56 1.42 1.44 1.73 1.93 2.12 2.29 2.23 2.23 2.42 2.55 2.49 2.30 2.00 1.64 1.52 1.62 1.87 2.14 2.35 2.32
1.19 1.23 1.29 1.42 1.50 1.54 1.51 1.55 1.67 1.78 1.77 1.74 1.70 1.70 1.66 1.74 2.16 2.38 2.15 1.79 1.62 1.53 1.48 1.44 1.48 1.59 1.76 1.77 1.95 2.03 1.99 2.15 2.39 2.50 2.48 2.00 1.74 1.63 1.90 2.21 2.26 2.38 2.25
1.20 1.21 1.28 1.37 1.42 1.54 1.57 1.56 1.69 1.76 1.69 1.67 1.68 1.65 1.62 1.69 2.05 2.29 2.14 1.81 1.70 1.60 1.54 1.45 1.40 1.44 1.60 1.81 1.91 1.89 1.75 1.77 1.99 2.16 2.36 2.15 1.94 1.98 2.36 2.72 2.86 2.85 2.53
1.19 1.15 1.21 1.33 1.39 1.47 1.53 1.59 1.67 1.77 1.69 1.61 1.59 1.64 1.59 1.63 1.99 2.32 2.20 1.84 1.78 1.67 1.61 1.52 1.39 1.33 1.61 1.86 1.81 1.76 1.65 1.64 1.77 1.99 2.16 2.23 2.27 2.43 2.77 3.27 3.50 3.52 3.20
1.15 1.06 1.13 1.23 1.32 1.42 1.48 1.55 1.62 1.63 1.62 1.62 1.57 1.58 1.56 1.55 1.85 2.26 2.35 1.88 1.76 1.66 1.64 1.57 1.64 1.60 1.75 1.80 1.67 1.75 1.85 1.67 1.57 1.62 1.69 1.75 1.77 1.92 2.40 2.88 3.33 3.56 3.33
1.12 1.05 1.10 1.16 1.24 1.36 1.47 1.48 1.56 1.61 1.60 1.64 1.63 1.61 1.56 1.58 1.70 2.01 2.37 2.06 1.85 1.69 1.67 1.65 1.58 1.78 1.82 1.81 1.78 1.72 1.91 1.79 1.64 1.70 1.67 1.60 1.57 1.68 1.87 2.21 2.80 3.34 3.46
1.07 1.06 1.13 1.18 1.22 1.28 1.40 1.41 1.45 1.58 1.63 1.64 1.66 1.70 1.67 1.63 1.68 1.90 2.18 2.15 2.02 1.79 1.69 1.57 1.55 1.78 1.82 1.86 1.79 1.83 1.90 1.86 1.73 1.75 1.66 1.55 1.55 1.64 1.78 1.99 2.30 2.69 2.90
1.06 1.05 1.12 1.21 1.25 1.28 1.33 1.36 1.41 1.49 1.60 1.62 1.59 1.59 1.63 1.57 1.66 1.96 1.95 1.98 1.99 1.87 1.82 1.86 1.81 1.89 1.89 1.76 1.73 1.78 1.71 1.61 1.69 1.75 1.64 1.44 1.37 1.49 1.61 1.76 1.89 2.13 2.35
1.04 1.04 1.10 1.17 1.23 1.28 1.25 1.22 1.25 1.37 1.51 1.54 1.53 1.47 1.42 1.46 1.64 1.85 1.79 1.74 1.83 1.91 1.97 1.95 1.94 1.97 1.90 1.81 1.73 1.58 1.45 1.49 1.61 1.62 1.52 1.39 1.29 1.35 1.50 1.62 1.78 1.91 2.24
0.98 0.97 1.04 1.08 1.17 1.28 1.27 1.22 1.22 1.23 1.44 1.62 1.58 1.52 1.55 1.64 1.78 1.97 1.92 1.85 1.87 1.93 2.03 2.07 2.00 1.96 1.96 1.80 1.59 1.41 1.35 1.45 1.53 1.43 1.43 1.44 1.40 1.39 1.40 1.45 1.67 1.83 2.10
0.98 0.95 0.99 1.03 1.09 1.18 1.22 1.28 1.42 1.39 1.42 1.45 1.48 1.57 1.54 1.68 1.78 1.82 1.86 1.92 2.03 2.09 2.15 2.11 1.89 1.68 1.62 1.55 1.47 1.38 1.32 1.33 1.33 1.35 1.41 1.41 1.40 1.41 1.42 1.41 1.55 1.76 1.95
1.00 0.98 0.99 1.02 1.06 1.12 1.12 1.12 1.29 1.45 1.50 1.46 1.39 1.43 1.52 1.59 1.63 1.66 1.71 1.78 1.90 1.96 1.93 1.74 1.58 1.48 1.42 1.38 1.33 1.30 1.27 1.20 1.22 1.31 1.37 1.36 1.34 1.38 1.43 1.47 1.52 1.66 1.80
1.02 1.08 1.08 1.05 1.08 1.14 1.12 1.06 1.08 1.17 1.28 1.37 1.41 1.41 1.45 1.49 1.55 1.58 1.63 1.77 1.86 1.71 1.58 1.54 1.48 1.42 1.41 1.44 1.41 1.35 1.28 1.24 1.27 1.29 1.30 1.30 1.33 1.40 1.44 1.42 1.45 1.60 1.71
1.05 1.10 1.12 1.09 1.12 1.17 1.15 1.12 1.11 1.11 1.13 1.18 1.26 1.38 1.48 1.50 1.53 1.60 1.59 1.59 1.57 1.50 1.42 1.42 1.41 1.42 1.44 1.46 1.41 1.37 1.34 1.28 1.23 1.24 1.22 1.21 1.24 1.35 1.37 1.31 1.37 1.52 1.64
1.11 1.22 1.24 1.18 1.16 1.21 1.23 1.23 1.20 1.17 1.18 1.16 1.19 1.29 1.46 1.55 1.55 1.59 1.54 1.48 1.47 1.41 1.37 1.40 1.39 1.41 1.46 1.48 1.44 1.39 1.38 1.31 1.23 1.21 1.17 1.15 1.17 1.26 1.33 1.31 1.38 1.47 1.50
1.14 1.21 1.30 1.22 1.17 1.24 1.31 1.30 1.25 1.24 1.24 1.19 1.16 1.26 1.58 1.64 1.51 1.40 1.43 1.44 1.47 1.46 1.46 1.47 1.45 1.44 1.43 1.44 1.43 1.38 1.34 1.29 1.22 1.20 1.17 1.16 1.18 1.23 1.23 1.29 1.35 1.37 1.42
1.15 1.19 1.23 1.22 1.21 1.28 1.36 1.34 1.31 1.29 1.26 1.24 1.20 1.25 1.41 1.36 1.35 1.36 1.37 1.37 1.39 1.43 1.48 1.55 1.52 1.47 1.46 1.46 1.46 1.42 1.33 1.24 1.19 1.20 1.20 1.15 1.15 1.17 1.19 1.24 1.28 1.31 1.37
1.16 1.20 1.23 1.24 1.21 1.32 1.38 1.34 1.31 1.29 1.28 1.24 1.26 1.26 1.28 1.30 1.35 1.40 1.42 1.40 1.40 1.43 1.43 1.47 1.49 1.44 1.41 1.40 1.41 1.46 1.41 1.25 1.18 1.25 1.32 1.23 1.14 1.13 1.16 1.18 1.19 1.25 1.30
1.20 1.22 1.25 1.25 1.23 1.25 1.30 1.34 1.32 1.30 1.29 1.28 1.30 1.33 1.32 1.34 1.36 1.38 1.40 1.41 1.43 1.42 1.39 1.40 1.40 1.37 1.35 1.34 1.33 1.32 1.29 1.28 1.37 1.42 1.39 1.37 1.27 1.16 1.17 1.19 1.15 1.18 1.27
1.23 1.25 1.27 1.30 1.29 1.28 1.28 1.31 1.30 1.31 1.31 1.29 1.30 1.32 1.30 1.31 1.32 1.32 1.35 1.37 1.39 1.37 1.31 1.33 1.39 1.39 1.34 1.28 1.23 1.24 1.38 1.49 1.59 1.68 1.68 1.58 1.38 1.22 1.20 1.20 1.16 1.18 1.23
1.20 1.22 1.26 1.29 1.31 1.28 1.29 1.32 1.30 1.30 1.33 1.30 1.27 1.29 1.30 1.31 1.30 1.29 1.31 1.35 1.39 1.34 1.28 1.28 1.32 1.33 1.31 1.27 1.26 1.34 1.46 1.48 1.54 1.62 1.71 1.68 1.46 1.24 1.20 1.22 1.15 1.16 1.21